Regional Weather Roundup
Issued by NWS Bismarck, ND

Home | Current Version | Previous Version | Text Only | Print | Product List | Glossary On
Versions: 1 2 3 4 5 6 7 8 9 10 11 12 13 14 15 16 17 18 19 20 21 22 23 24 25 26 27 28 29 30 31 32 33 34 35 36 37 38 39 40 41 42 43 44 45 46 47 48 49 50
000
ASUS43 KBIS 280320
RWRBIS

NWR BROADCAST TEXT
NATIONAL WEATHER SERVICE BISMARCK ND
900 PM CST THU NOV 27 2014

NOTE: "FAIR" INDICATES FEW OR NO CLOUDS BELOW 12,000 FEET WITH NO
SIGNIFICANT WEATHER AND/OR OBSTRUCTIONS TO VISIBILITY.


CITY           SKY/WX    TMP DP  RH WIND       PRES   REMARKS
WILLISTON      PTCLDY    14  10  84 E7        29.83F WCI   4
MINOT          CLOUDY    11   7  84 E7        29.94S WCI   0
MINOT AFB      CLOUDY    10   7  89 SE15      29.95S WCI  -7
BISMARCK       CLOUDY    11   4  73 SE13      29.95F WCI  -4
DICKINSON      CLEAR     22  18  85 S9        29.75F WCI  12
GARRISON         N/A     11   7  84 SE13      29.90F WCI  -4
HETTINGER ARPT CLEAR     22  18  85 S5        29.81F WCI  16
JAMESTOWN      LGT SNOW   6   2  83 SE15G22   30.03F FOG     WCI -12
BEACH          FAIR      36  32  87 W12       29.76S
CARRINGTON     CLOUDY     5   5 100 SE16      30.02F FOG     WCI -14
CROSBY         CLOUDY    14  10  85 SE12      29.88R WCI   0
HARVEY         CLOUDY     7   1  78 SE13      29.99F FOG     WCI  -9
HAZEN          CLOUDY    14   7  73 SE12G18   29.90F WCI   0
LINTON         CLOUDY    12   9  85 SE10G17   29.95F WCI  -1
MANDAN         CLOUDY    10   7  85 SE13      29.91F WCI  -5
OAKES          FLURRIES   7   5  92 E14       30.06F WCI -10
RUGBY          CLOUDY     7   3  85 SE14      30.01S WCI -10
STANLEY        CLOUDY    10  10 100 SE15      29.86F WCI  -6
TIOGA          CLOUDY    12  12 100 SE13      29.87F WCI  -3
$$

CITY           SKY/WX    TMP DP  RH WIND       PRES   REMARKS
GRAND FORKS    LGT SNOW   9   3  78 S12       30.16F WCI  -6
GRAND FORKS AF LGT SNOW   7   3  85 S13       30.14F WCI  -9
DEVILS LAKE    CLOUDY     7  -4  61 SE14      30.03S WCI -10
FARGO          LGT SNOW   9   2  73 SE8       30.20R WCI  -3
CANDO          CLOUDY     7   3  85 SE15      30.05R WCI -11
CAVALIER       CLOUDY     5   1  85 SE9       30.16S WCI  -9
GRAFTON        FAIR       5   1  85 SE10      30.16F WCI -10
GWINNER        CLOUDY     9   3  78 E18       30.09F WCI -10
LANGDON        CLOUDY     7   1  78 S12       30.05R WCI  -9
ROLLA          CLOUDY     5   1  85 S8        30.02S WCI  -8
WALHALLA         N/A      5   1  85 S10       30.14S WCI -10
$$

CITY           SKY/WX    TMP DP  RH WIND       PRES   REMARKS
ABERDEEN       CLOUDY    17   9  70 S15       30.03F WCI   2
MOBRIDGE       MOCLDY    17  12  80 SE10      29.90F WCI   5
BUFFALO          N/A     26  21  81 CALM      29.74F
RAPID CITY     CLEAR     28  24  85 CALM      29.87S
GLASGOW        MOCLDY    24  21  88 E7        29.75R WCI  16
SIDNEY         PTCLDY    19  16  86 N10       29.80F WCI   8
WOLF POINT     CLOUDY    22  19  89 NE10      29.79F WCI  11
GLENDIVE       PTCLDY    30  28  93 SE3       29.75F
MILES CITY     PTCLDY    41  33  73 SW8       29.76F
BAKER          CLOUDY    38  31  76 CALM      29.78F
$$

CITY           SKY/WX    TMP DP  RH WIND       PRES   REMARKS
BILLINGS       CLOUDY    49  29  46 SW22      29.79F
GREAT FALLS    CLEAR     43  35  73 SW10      29.69F
REGINA         FLURRIES  18  14  86 E16       29.88F WCI   3
ESTEVAN        FLURRIES   9   5  85 E12G20    29.90F WCI  -6
$$




USA.gov is the U.S. government's official web portal to all federal, state and local government web resources and services.